星链-30333 (STARLINK-30333 )

导读

STARLINK-30333是美国SpaceX星链星座中的一颗低轨通信卫星,于2023年8月27日发射升空。星链星座旨在为全球提供高速低时延宽带互联网服务,尤其覆盖基础设施匮乏的偏远区域。该卫星运行在约550公里的近地轨道,采用相控阵天线与OFDM传输技术,搭配霍尔推进系统实现轨道机动与自主离轨,最终将在大气层完全销毁,助力星链实现全球互联的网络覆盖目标。

Basic Information
目录编号:
57702
目录名称:
STARLINK-30333
国际标识:
2023-129E
轨道中心:
EARTH
卫星名称:
星链-30333
卫星全名:
星链-30333 (STARLINK-30333 )
卫星状态:
在轨 (已飞行1105 天)
发射日期:
2023-08-27 UTC
国别 :
美国 (US)
星等 :
--
Orbit Information
数据来源 国际轨道数据 AOE轨道数据
星历时间 2026-09-05T13:19:08+0800
10小时前
查看轨道信息
2026-09-04T12:00:00+0800
1天前
查看轨道信息
半长轴 6861.175km 6861.205km
偏心率 0.000118 0.0002123
轨道倾角 43.003° 43.004°
近地点辐角 268.203° 306.265°
升交点赤经 183.670° 189.618°
平近点角 91.869° 5.487°
近地点 482.228km 481.611km
远地点 483.848km 484.525km
周期 94.267分钟 94.267分钟
每日圈数 15.275838 15.275737
Detailed Information
固有亮度:
5
最大亮度:
0.3
卫星平台:
Starlink v2.0 mini
覆盖范围:
全球
运营商:
太空探索技术公司
运营商所在国:
美国
制造商(研发单位):
太空探索技术公司
制造商所在国:
美国
使用方式:
暂无
Satellite Introduction
星链(Starlink)计划是由太空探索技术公司(SpaceX)提出的一个巨型低轨卫星互联网星座项目,计划在2019年至2024年间在太空搭建由约1.2万颗卫星组成的“星链”网络,其中1584颗将部署在地球上空550千米处的近地轨道,并从2020年开始工作。该卫星仍在工作。
2D Orbit Map
3D Orbit Map
Orbit Altitude Analysis Chart
Orbit Inclination Analysis Chart
Orbit Comprehensive Analysis Chart
View Comprehensive Chart
Conjunction Data List
Event ID Objects TCA Miss Dist (km) Collision Risk Probability Collision Risk Index (CRI) Action
CDM_260907-194705-770206-391021
2026-09-07T
19:47:42+0000
0.455 km
远距离
1.371703E-4 高风险 0.78
CDM_260907-201805-770206-695921
2026-09-07T
20:18:55+0000
0.873 km
远距离
2.701893E-5 中风险 0.64
CDM_260906-033902-057605-770222
2026-09-06T
03:39:47+0000
1.206 km
极远距离
1.100959E-5 中风险 0.56
CDM_260907-181305-770206-391021
2026-09-07T
18:13:32+0000
1.341 km
极远距离
4.724444E-6 低风险 0.48
CDM_260907-184405-770206-695921
2026-09-07T
18:44:45+0000
2.147 km
极远距离
1.60312E-6 低风险 0.39
CDM_260907-212105-770206-391021
2026-09-07T
21:21:51+0000
2.275 km
极远距离
1.122281E-6 低风险 0.36